EN

Hourly Weather Altrip

Today, 26 January, Tuesday

Time Temperature Precipitation Wind Pressure Humidity
00:00 -1°C° 0 mm 2 mps 751 mmHg 87%
01:00 -1°C° 0 mm 3 mps 752 mmHg 86%
02:00 -1°C° 0.1 mm 3 mps 752 mmHg 86%
03:00 -2°C° 0.1 mm 4 mps 752 mmHg 86%
04:00 -2°C° 0.1 mm 5 mps 753 mmHg 86%
05:00 -1°C° 0.1 mm 5 mps 753 mmHg 85%
06:00 -2°C° 0.1 mm 6 mps 753 mmHg 85%
07:00 -2°C° 0.1 mm 6 mps 753 mmHg 84%
08:00 -1°C° 0.1 mm 6 mps 753 mmHg 84%
09:00 -1°C° 0.1 mm 6 mps 753 mmHg 83%
10:00 -1°C° 0.1 mm 6 mps 754 mmHg 83%
11:00 -1°C° 0 mm 6 mps 754 mmHg 80%
12:00 +1°C° 0 mm 6 mps 755 mmHg 78%
13:00 +1°C° 0 mm 6 mps 755 mmHg 76%
14:00 +1°C° 0.1 mm 6 mps 755 mmHg 77%
15:00 +1°C° 0.1 mm 5 mps 755 mmHg 79%
16:00 0°C° 0.1 mm 5 mps 756 mmHg 80%
17:00 0°C° 0.1 mm 5 mps 756 mmHg 81%
18:00 0°C° 0.1 mm 4 mps 756 mmHg 82%
19:00 0°C° 0.1 mm 3 mps 757 mmHg 83%
20:00 0°C° 0 mm 3 mps 757 mmHg 84%
21:00 0°C° 0 mm 3 mps 757 mmHg 86%
22:00 +1°C° 0 mm 2 mps 757 mmHg 88%
23:00 +1°C° 0 mm 2 mps 757 mmHg 89%

Tomorrow, 27 January, Wednesday

Time Temperature Precipitation Wind Pressure Humidity
00:00 +1°C° 0 mm 2 mps 757 mmHg 90%
01:00 +1°C° 0 mm 2 mps 756 mmHg 91%
02:00 +1°C° 0 mm 2 mps 756 mmHg 90%
03:00 +1°C° 0 mm 2 mps 755 mmHg 90%
04:00 +1°C° 0 mm 2 mps 755 mmHg 89%
05:00 -1°C° 0 mm 2 mps 754 mmHg 89%
06:00 -1°C° 0 mm 3 mps 754 mmHg 89%
07:00 -1°C° 0 mm 3 mps 754 mmHg 89%
08:00 -1°C° 0.2 mm 3 mps 754 mmHg 90%
09:00 -1°C° 0.2 mm 4 mps 753 mmHg 92%
10:00 -1°C° 0.2 mm 4 mps 753 mmHg 94%
11:00 -1°C° 0.3 mm 4 mps 753 mmHg 93%
12:00 -1°C° 0.3 mm 4 mps 753 mmHg 92%
13:00 0°C° 0.3 mm 5 mps 753 mmHg 91%
14:00 0°C° 0.1 mm 4 mps 752 mmHg 91%
15:00 0°C° 0.1 mm 4 mps 752 mmHg 90%
16:00 +1°C° 0.1 mm 4 mps 752 mmHg 89%
17:00 +1°C° 0 mm 4 mps 752 mmHg 90%
18:00 +1°C° 0 mm 4 mps 752 mmHg 90%
19:00 +1°C° 0 mm 4 mps 752 mmHg 91%
20:00 +1°C° 0 mm 4 mps 752 mmHg 91%
21:00 +2°C° 0 mm 3 mps 752 mmHg 92%
22:00 +2°C° 0 mm 3 mps 752 mmHg 93%
23:00 +2°C° 0 mm 3 mps 752 mmHg 94%

Day after tomorrow, 28 January, Thursday

Time Temperature Precipitation Wind Pressure Humidity
00:00 +2°C° 0 mm 3 mps 752 mmHg 94%
01:00 +2°C° 0 mm 3 mps 752 mmHg 95%
02:00 +3°C° 0 mm 3 mps 752 mmHg 95%
03:00 +3°C° 0 mm 3 mps 751 mmHg 96%
04:00 +3°C° 0 mm 3 mps 751 mmHg 96%
05:00 +3°C° 0.5 mm 3 mps 750 mmHg 97%
06:00 +3°C° 0.5 mm 3 mps 750 mmHg 97%
07:00 +3°C° 0.5 mm 3 mps 749 mmHg 98%
08:00 +3°C° 1 mm 3 mps 748 mmHg 97%
09:00 +4°C° 1 mm 3 mps 747 mmHg 97%
10:00 +4°C° 1 mm 3 mps 746 mmHg 97%
11:00 +4°C° 1.1 mm 4 mps 746 mmHg 96%
12:00 +5°C° 1.1 mm 4 mps 745 mmHg 96%
13:00 +6°C° 1.1 mm 4 mps 744 mmHg 96%
14:00 +7°C° 1.2 mm 5 mps 744 mmHg 94%
15:00 +8°C° 1.2 mm 6 mps 743 mmHg 92%
16:00 +9°C° 1.2 mm 6 mps 743 mmHg 91%
17:00 +9°C° 0.3 mm 6 mps 743 mmHg 89%
18:00 +9°C° 0.3 mm 6 mps 743 mmHg 87%
19:00 +9°C° 0.3 mm 6 mps 744 mmHg 86%
20:00 +9°C° 0 mm 6 mps 744 mmHg 86%
21:00 +8°C° 0 mm 6 mps 744 mmHg 86%
22:00 +8°C° 0 mm 5 mps 744 mmHg 87%
23:00 +8°C° 0.1 mm 5 mps 744 mmHg 88%

29 January, Friday

Time Temperature Precipitation Wind Pressure Humidity
00:00 +8°C° 0.1 mm 5 mps 744 mmHg 90%
01:00 +8°C° 0.1 mm 4 mps 744 mmHg 92%
02:00 +8°C° 0.9 mm 4 mps 743 mmHg 92%
03:00 +8°C° 0.9 mm 5 mps 742 mmHg 92%
04:00 +8°C° 0.9 mm 5 mps 741 mmHg 92%
05:00 +8°C° 0.6 mm 5 mps 741 mmHg 88%
06:00 +8°C° 0.6 mm 6 mps 741 mmHg 85%
07:00 +8°C° 0.6 mm 6 mps 742 mmHg 81%
08:00 +8°C° 0 mm 6 mps 742 mmHg 79%
09:00 +8°C° 0 mm 6 mps 743 mmHg 77%
10:00 +8°C° 0 mm 6 mps 744 mmHg 75%
11:00 +7°C° 0 mm 6 mps 744 mmHg 77%
12:00 +7°C° 0 mm 6 mps 744 mmHg 78%
13:00 +7°C° 0 mm 5 mps 745 mmHg 79%
14:00 +7°C° 0.1 mm 5 mps 745 mmHg 79%
15:00 +7°C° 0.1 mm 5 mps 745 mmHg 79%
16:00 +8°C° 0.1 mm 5 mps 745 mmHg 79%
17:00 +7°C° 0.3 mm 5 mps 745 mmHg 80%
18:00 +7°C° 0.3 mm 5 mps 745 mmHg 82%
19:00 +6°C° 0.3 mm 5 mps 745 mmHg 84%
20:00 +6°C° 0.2 mm 5 mps 745 mmHg 84%
21:00 +6°C° 0.2 mm 4 mps 745 mmHg 84%
22:00 +6°C° 0.2 mm 4 mps 745 mmHg 84%
23:00 +6°C° 0.1 mm 4 mps 746 mmHg 84%

30 January, Saturday

Time Temperature Precipitation Wind Pressure Humidity
00:00 +6°C° 0.1 mm 4 mps 746 mmHg 83%
01:00 +6°C° 0.1 mm 4 mps 746 mmHg 83%
02:00 +6°C° 0.1 mm 4 mps 746 mmHg 84%
03:00 +5°C° 0.1 mm 4 mps 746 mmHg 84%
04:00 +5°C° 0.1 mm 4 mps 746 mmHg 85%
05:00 +5°C° 0.1 mm 4 mps 746 mmHg 86%
06:00 +5°C° 0.1 mm 4 mps 746 mmHg 86%
07:00 +4°C° 0.1 mm 4 mps 746 mmHg 87%
08:00 +5°C° 0.1 mm 3 mps 746 mmHg 85%
09:00 +5°C° 0.1 mm 3 mps 746 mmHg 84%
10:00 +5°C° 0.1 mm 3 mps 747 mmHg 83%
11:00 +5°C° 0.2 mm 3 mps 747 mmHg 82%
12:00 +6°C° 0.2 mm 2 mps 747 mmHg 82%
13:00 +6°C° 0.2 mm 2 mps 747 mmHg 82%
14:00 +6°C° 0.1 mm 2 mps 747 mmHg 82%
15:00 +6°C° 0.1 mm 2 mps 747 mmHg 83%
16:00 +6°C° 0.1 mm 1 mps 747 mmHg 83%
17:00 +6°C° 0 mm 1 mps 747 mmHg 84%
18:00 +5°C° 0 mm 1 mps 747 mmHg 84%
19:00 +5°C° 0 mm 1 mps 748 mmHg 84%
20:00 +5°C° 0 mm 1 mps 748 mmHg 83%
21:00 +5°C° 0 mm 1 mps 748 mmHg 82%
22:00 +4°C° 0 mm 1 mps 748 mmHg 82%
23:00 +4°C° 0 mm 1 mps 748 mmHg 82%

31 January, Sunday

Time Temperature Precipitation Wind Pressure Humidity
00:00 +4°C° 0 mm 1 mps 748 mmHg 83%
01:00 +3°C° 0 mm 1 mps 748 mmHg 83%
02:00 +3°C° 0 mm 1 mps 748 mmHg 83%
03:00 +3°C° 0 mm 1 mps 748 mmHg 84%
04:00 +3°C° 0 mm 1 mps 747 mmHg 85%
05:00 +3°C° 0 mm 1 mps 747 mmHg 85%
06:00 +3°C° 0 mm 1 mps 747 mmHg 86%
07:00 +3°C° 0 mm 1 mps 746 mmHg 86%
08:00 +3°C° 0 mm 1 mps 746 mmHg 86%
09:00 +4°C° 0 mm 1 mps 745 mmHg 85%
10:00 +3°C° 0 mm 2 mps 744 mmHg 85%
11:00 +4°C° 0.4 mm 2 mps 743 mmHg 87%
12:00 +4°C° 0.4 mm 2 mps 742 mmHg 89%
13:00 +4°C° 0.4 mm 2 mps 741 mmHg 91%
14:00 +5°C° 1.3 mm 2 mps 740 mmHg 92%
15:00 +5°C° 1.3 mm 2 mps 738 mmHg 94%
16:00 +5°C° 1.3 mm 2 mps 737 mmHg 95%
17:00 +5°C° 0.4 mm 3 mps 737 mmHg 94%
18:00 +5°C° 0.4 mm 3 mps 736 mmHg 93%
19:00 +6°C° 0.4 mm 4 mps 735 mmHg 92%
20:00 +6°C° 0.5 mm 4 mps 735 mmHg 92%
21:00 +7°C° 0.5 mm 5 mps 735 mmHg 91%
22:00 +7°C° 0.5 mm 5 mps 735 mmHg 91%
23:00 +7°C° 0.4 mm 5 mps 735 mmHg 92%
Show more